• In Deutschland
  • Länderverzeichnis
  • Für 7 Tage
  • Wassertemperatur
  • Satellitenkarten
  • Wetterkarte
  • Widgets
  • user-avatar
    Anmelden

    Stündliche Wetter Innsbruck

    Heute, 23 Juni, Freitag

    Zeit Temperatur Niederschläge Wind Luftdruck Luftfeuchtigkeit
    00:00 +9°C° 0,6 mm 1 m/S 599 mmHg 89%
    01:00 +9°C° 0 mm 2 m/S 598 mmHg 92%
    02:00 +8°C° 0,9 mm 2 m/S 598 mmHg 92%
    03:00 +8°C° 0,9 mm 2 m/S 598 mmHg 92%
    04:00 +9°C° 0,9 mm 1 m/S 598 mmHg 92%
    05:00 +11°C° 0,6 mm 1 m/S 599 mmHg 89%
    06:00 +12°C° 0,6 mm 1 m/S 600 mmHg 86%
    07:00 +15°C° 0 mm 2 m/S 601 mmHg 82%
    08:00 +17°C° 0,2 mm 2 m/S 602 mmHg 73%
    09:00 +18°C° 0,2 mm 2 m/S 603 mmHg 63%
    10:00 +20°C° 0,2 mm 2 m/S 603 mmHg 53%
    11:00 +20°C° 0,4 mm 2 m/S 603 mmHg 55%
    12:00 +20°C° 0,4 mm 2 m/S 603 mmHg 56%
    13:00 +20°C° 0,4 mm 2 m/S 603 mmHg 57%
    14:00 +19°C° 0,4 mm 2 m/S 603 mmHg 59%
    15:00 +19°C° 0,4 mm 2 m/S 603 mmHg 60%
    16:00 +19°C° 0,4 mm 2 m/S 603 mmHg 62%
    17:00 +18°C° 0,3 mm 2 m/S 603 mmHg 69%
    18:00 +16°C° 0,3 mm 1 m/S 602 mmHg 75%
    19:00 +15°C° 0,3 mm 1 m/S 602 mmHg 82%
    20:00 +13°C° 0,1 mm 1 m/S 601 mmHg 86%
    21:00 +11°C° 0,1 mm 1 m/S 600 mmHg 89%
    22:00 +10°C° 0,1 mm 1 m/S 600 mmHg 93%
    23:00 +9°C° 0 mm 1 m/S 600 mmHg 93%

    Morgen, 24 Juni, Samstag

    Zeit Temperatur Niederschläge Wind Luftdruck Luftfeuchtigkeit
    00:00 +9°C° 0 mm 1 m/S 600 mmHg 93%
    01:00 +9°C° 0 mm 1 m/S 600 mmHg 94%
    02:00 +8°C° 0 mm 1 m/S 599 mmHg 93%
    03:00 +8°C° 0 mm 1 m/S 599 mmHg 93%
    04:00 +7°C° 0 mm 1 m/S 598 mmHg 92%
    05:00 +9°C° 0 mm 1 m/S 599 mmHg 85%
    06:00 +11°C° 0 mm 0 m/S 601 mmHg 78%
    07:00 +13°C° 0 mm 0 m/S 602 mmHg 71%
    08:00 +15°C° 0 mm 0 m/S 602 mmHg 63%
    09:00 +19°C° 0 mm 1 m/S 603 mmHg 55%
    10:00 +21°C° 0 mm 1 m/S 604 mmHg 47%
    11:00 +21°C° 0,2 mm 1 m/S 604 mmHg 49%
    12:00 +22°C° 0,2 mm 1 m/S 604 mmHg 51%
    13:00 +21°C° 0,2 mm 2 m/S 603 mmHg 53%
    14:00 +21°C° 0,7 mm 1 m/S 603 mmHg 57%
    15:00 +20°C° 0,7 mm 1 m/S 602 mmHg 61%
    16:00 +19°C° 0,7 mm 1 m/S 602 mmHg 66%
    17:00 +18°C° 0,8 mm 1 m/S 601 mmHg 74%
    18:00 +16°C° 0,8 mm 1 m/S 601 mmHg 81%
    19:00 +14°C° 0,8 mm 1 m/S 600 mmHg 89%
    20:00 +13°C° 0,9 mm 1 m/S 600 mmHg 92%
    21:00 +11°C° 0,9 mm 1 m/S 599 mmHg 95%
    22:00 +8°C° 0,9 mm 0 m/S 599 mmHg 98%
    23:00 +8°C° 0,4 mm 0 m/S 598 mmHg 98%

    übermorgen, 25 Juni, Sonntag

    Zeit Temperatur Niederschläge Wind Luftdruck Luftfeuchtigkeit
    00:00 +8°C° 0,4 mm 0 m/S 598 mmHg 98%
    01:00 +8°C° 0,4 mm 0 m/S 598 mmHg 98%
    02:00 +8°C° 0,7 mm 0 m/S 598 mmHg 98%
    03:00 +8°C° 0,7 mm 0 m/S 598 mmHg 98%
    04:00 +8°C° 0,7 mm 0 m/S 598 mmHg 98%
    05:00 +10°C° 1,3 mm 1 m/S 598 mmHg 97%
    06:00 +10°C° 1,3 mm 1 m/S 598 mmHg 96%
    07:00 +11°C° 1,3 mm 1 m/S 598 mmHg 94%
    08:00 +11°C° 1,1 mm 1 m/S 598 mmHg 92%
    09:00 +12°C° 1,1 mm 1 m/S 599 mmHg 90%
    10:00 +12°C° 1,1 mm 1 m/S 599 mmHg 87%
    11:00 +13°C° 0,3 mm 1 m/S 599 mmHg 81%
    12:00 +14°C° 0,3 mm 2 m/S 600 mmHg 74%
    13:00 +15°C° 0,3 mm 2 m/S 600 mmHg 68%
    14:00 +16°C° 0,2 mm 2 m/S 600 mmHg 65%
    15:00 +16°C° 0,2 mm 2 m/S 600 mmHg 63%
    16:00 +16°C° 0,2 mm 2 m/S 600 mmHg 61%
    17:00 +15°C° 0,1 mm 2 m/S 599 mmHg 67%
    18:00 +14°C° 0,1 mm 2 m/S 599 mmHg 73%
    19:00 +13°C° 0,1 mm 1 m/S 599 mmHg 79%
    20:00 +11°C° 0 mm 1 m/S 598 mmHg 84%
    21:00 +8°C° 0 mm 1 m/S 598 mmHg 90%
    22:00 +6°C° 0 mm 1 m/S 597 mmHg 95%
    23:00 +6°C° 0 mm 1 m/S 597 mmHg 96%

    26 Juni, Montag

    Zeit Temperatur Niederschläge Wind Luftdruck Luftfeuchtigkeit
    00:00 +5°C° 0 mm 1 m/S 596 mmHg 96%
    01:00 +3°C° 0 mm 0 m/S 596 mmHg 96%
    02:00 +3°C° 0 mm 0 m/S 596 mmHg 96%
    03:00 +3°C° 0 mm 0 m/S 595 mmHg 96%
    04:00 +3°C° 0 mm 1 m/S 595 mmHg 96%
    05:00 +5°C° 0 mm 0 m/S 597 mmHg 89%
    06:00 +8°C° 0 mm 0 m/S 598 mmHg 82%
    07:00 +11°C° 0 mm 0 m/S 599 mmHg 75%
    08:00 +13°C° 0 mm 0 m/S 600 mmHg 66%
    09:00 +16°C° 0 mm 1 m/S 601 mmHg 57%
    10:00 +19°C° 0 mm 1 m/S 602 mmHg 48%
    11:00 +20°C° 0 mm 1 m/S 602 mmHg 46%
    12:00 +21°C° 0 mm 1 m/S 602 mmHg 44%
    13:00 +21°C° 0 mm 2 m/S 602 mmHg 43%
    14:00 +20°C° 0,1 mm 2 m/S 601 mmHg 47%
    15:00 +20°C° 0,1 mm 2 m/S 601 mmHg 52%
    16:00 +19°C° 0,1 mm 2 m/S 600 mmHg 57%
    17:00 +18°C° 0,6 mm 2 m/S 600 mmHg 66%
    18:00 +16°C° 0,6 mm 1 m/S 599 mmHg 75%
    19:00 +15°C° 0,6 mm 1 m/S 599 mmHg 83%
    20:00 +14°C° 1 mm 1 m/S 598 mmHg 87%
    21:00 +12°C° 1 mm 1 m/S 598 mmHg 91%
    22:00 +10°C° 1 mm 2 m/S 597 mmHg 95%
    23:00 +10°C° 0,8 mm 2 m/S 597 mmHg 96%

    27 Juni, Dienstag

    Zeit Temperatur Niederschläge Wind Luftdruck Luftfeuchtigkeit
    00:00 +9°C° 0,8 mm 2 m/S 597 mmHg 96%
    01:00 +9°C° 0,8 mm 2 m/S 597 mmHg 96%
    02:00 +9°C° 0,1 mm 2 m/S 596 mmHg 96%
    03:00 +9°C° 0,1 mm 2 m/S 596 mmHg 96%
    04:00 +8°C° 0,1 mm 2 m/S 596 mmHg 96%
    05:00 +9°C° 0,1 mm 2 m/S 596 mmHg 93%
    06:00 +10°C° 0,1 mm 2 m/S 597 mmHg 91%
    07:00 +12°C° 0,1 mm 2 m/S 597 mmHg 89%
    08:00 +14°C° 0,2 mm 2 m/S 598 mmHg 80%
    09:00 +16°C° 0,2 mm 2 m/S 598 mmHg 72%
    10:00 +18°C° 0,2 mm 1 m/S 599 mmHg 63%
    11:00 +18°C° 0,5 mm 2 m/S 599 mmHg 62%
    12:00 +19°C° 0,5 mm 2 m/S 599 mmHg 60%
    13:00 +19°C° 0,5 mm 2 m/S 599 mmHg 59%
    14:00 +19°C° 0,7 mm 2 m/S 599 mmHg 60%
    15:00 +19°C° 0,7 mm 2 m/S 598 mmHg 61%
    16:00 +19°C° 0,7 mm 2 m/S 598 mmHg 62%
    17:00 +18°C° 0,8 mm 2 m/S 598 mmHg 69%
    18:00 +18°C° 0,8 mm 1 m/S 597 mmHg 75%
    19:00 +16°C° 0,8 mm 1 m/S 597 mmHg 82%
    20:00 +14°C° 0,1 mm 2 m/S 596 mmHg 85%
    21:00 +12°C° 0,1 mm 2 m/S 595 mmHg 89%
    22:00 +10°C° 0,1 mm 2 m/S 594 mmHg 93%
    23:00 +9°C° 0 mm 2 m/S 594 mmHg 93%

    28 Juni, Mittwoch

    Zeit Temperatur Niederschläge Wind Luftdruck Luftfeuchtigkeit
    00:00 +9°C° 0 mm 2 m/S 594 mmHg 93%
    01:00 +9°C° 0 mm 2 m/S 593 mmHg 93%
    02:00 +8°C° 0 mm 2 m/S 593 mmHg 93%
    03:00 +8°C° 0 mm 2 m/S 593 mmHg 94%
    04:00 +8°C° 0 mm 2 m/S 593 mmHg 94%
    05:00 +10°C° 0 mm 2 m/S 593 mmHg 89%
    06:00 +12°C° 0 mm 2 m/S 594 mmHg 85%
    07:00 +13°C° 0 mm 2 m/S 594 mmHg 81%
    08:00 +15°C° 0,1 mm 2 m/S 595 mmHg 73%
    09:00 +16°C° 0,1 mm 2 m/S 596 mmHg 66%
    10:00 +18°C° 0,1 mm 2 m/S 596 mmHg 58%
    11:00 +18°C° 1,2 mm 2 m/S 596 mmHg 61%
    12:00 +18°C° 1,2 mm 2 m/S 596 mmHg 64%
    13:00 +18°C° 1,2 mm 3 m/S 595 mmHg 67%
    14:00 +17°C° 1,6 mm 2 m/S 595 mmHg 71%
    15:00 +17°C° 1,6 mm 2 m/S 594 mmHg 74%
    16:00 +17°C° 1,6 mm 2 m/S 594 mmHg 77%
    17:00 +15°C° 2,3 mm 2 m/S 593 mmHg 82%
    18:00 +14°C° 2,3 mm 2 m/S 592 mmHg 88%
    19:00 +12°C° 2,3 mm 2 m/S 592 mmHg 93%
    20:00 +12°C° 1 mm 2 m/S 591 mmHg 94%
    21:00 +10°C° 1 mm 2 m/S 590 mmHg 94%
    22:00 +9°C° 1 mm 3 m/S 590 mmHg 95%
    23:00 +9°C° 0,9 mm 3 m/S 589 mmHg 95%
    Mehr zeigen